Dodge City, KS

4:18 AM CST on December 17, 2017 (GMT -0600)
Dodge City Regional

Weather History for KDDC - July, 2013

Change the Weather History Date:

Wednesday, July 3, 2013

  Actual Average Record
Temperature  
Mean Temperature 74 °F -  
Max Temperature 88 °F 92 °F 105 °F (1973)
Min Temperature 59 °F 66 °F 50 °F (1924)
Cooling Degree Days 8    
Growing Degree Days 24 (Base 50)    
Moisture  
Dew Point 42 °F    
Average Humidity 34    
Maximum Humidity 60    
Minimum Humidity 9    
Precipitation  
Precipitation 0.00 in - - ()
Sea Level Pressure  
Sea Level Pressure 29.97 in    
Wind  
Wind Speed 11 mph (South)    
Max Wind Speed 17 mph    
Max Gust Speed 24 mph    
Visibility 8 miles    
Events      
Averages and records for this station are not official NWS values.
T = Trace of Precipitation, MM = Missing Value Source: NWS Daily Summary

Daily Weather History Graph

Daily Weather History Graph

Search for Another Location

Airport or City:

Trip Planner

Search our weather history database for the weather conditions in past years. The results will help you decide how hot, cold, wet, or windy it might be!

Date:

Astronomy

Jul. 03, 2013 Rise Set
Actual Time 6:22 AM CDT 9:05 PM CDT
Civil Twilight 5:51 AM CDT 9:36 PM CDT
Nautical Twilight 5:12 AM CDT 10:15 PM CDT
Astronomical Twilight 4:29 AM CDT 10:58 PM CDT
Moon 2:59 AM CDT (7/3) 5:19 PM CDT (7/3)
Length of Visible Light 15h 44m
Length of Day
14h 42m
Waning Crescent, 18% of the Moon is Illuminated
Jul 3
Waning Crescent
Jul 8
New
Jul 15
First Quarter
Jul 22
Full
Jul 29
Last Quarter

Hourly Weather History & Observations

Time (CDT) Temp. Dew Point Humidity Pressure Visibility Wind Dir Wind Speed Gust Speed Precip Events Conditions
12:52 AM 64.0 °F 45.0 °F 50% 30.06 in 8.0 mi SSE 10.4 mph - N/A   Clear
1:52 AM 64.9 °F 46.0 °F 50% 30.05 in 7.0 mi SSE 9.2 mph - N/A   Partly Cloudy
2:52 AM 63.0 °F 45.0 °F 52% 30.04 in 8.0 mi SSE 9.2 mph - N/A   Clear
3:52 AM 61.0 °F 46.0 °F 58% 30.03 in 6.0 mi SSW 6.9 mph - N/A   Haze
4:52 AM 61.0 °F 46.9 °F 60% 30.02 in 6.0 mi South 6.9 mph - N/A   Haze
5:52 AM 61.0 °F 46.9 °F 60% 30.02 in 6.0 mi South 8.1 mph - N/A   Haze
6:52 AM 61.0 °F 46.9 °F 60% 30.03 in 5.0 mi South 6.9 mph - N/A   Haze
7:52 AM 63.0 °F 46.9 °F 56% 30.03 in 5.0 mi SSW 5.8 mph - N/A   Haze
8:52 AM 70.0 °F 46.9 °F 44% 30.04 in 5.0 mi SSW 10.4 mph - N/A   Haze
9:52 AM 77.0 °F 44.1 °F 31% 30.02 in 6.0 mi SSW 11.5 mph - N/A   Haze
10:52 AM 81.0 °F 41.0 °F 24% 30.01 in 7.0 mi SSW 13.8 mph - N/A   Scattered Clouds
11:52 AM 82.0 °F 39.9 °F 22% 30.00 in 7.0 mi SSW 12.7 mph 19.6 mph N/A   Partly Cloudy
12:52 PM 84.0 °F 37.0 °F 19% 29.98 in 9.0 mi SSW 17.3 mph 23.0 mph N/A   Partly Cloudy
1:52 PM 84.9 °F 36.0 °F 17% 29.95 in 10.0 mi South 10.4 mph 24.2 mph N/A   Partly Cloudy
2:52 PM 86.0 °F 37.0 °F 18% 29.94 in 10.0 mi South 17.3 mph 23.0 mph N/A   Partly Cloudy
3:52 PM 84.9 °F 36.0 °F 17% 29.92 in 10.0 mi SE 12.7 mph 21.9 mph N/A   Clear
4:52 PM 87.1 °F 36.0 °F 16% 29.90 in 10.0 mi SE 16.1 mph 23.0 mph N/A   Clear
5:52 PM 86.0 °F 36.0 °F 17% 29.88 in 10.0 mi SSE 11.5 mph - N/A   Partly Cloudy
6:52 PM 84.0 °F 36.0 °F 18% 29.87 in 10.0 mi SSE 16.1 mph - N/A   Clear
7:52 PM 82.9 °F 36.0 °F 19% 29.87 in 9.0 mi SSE 12.7 mph - N/A   Clear
8:52 PM 77.0 °F 45.0 °F 32% 29.87 in 9.0 mi SE 15.0 mph 23.0 mph N/A   Scattered Clouds
9:52 PM 73.0 °F 46.0 °F 38% 29.89 in 10.0 mi SE 15.0 mph - N/A   Clear
10:52 PM 70.0 °F 46.9 °F 44% 29.92 in 10.0 mi SE 12.7 mph - N/A   Partly Cloudy
11:52 PM 69.1 °F 46.9 °F 45% 29.92 in 10.0 mi SE 13.8 mph - N/A   Clear